OPS 6582 (TRANSIT 5E-5)

Satellite information

Favourite Embed

Satellite Type and Status

PAYLOADIN ORBIT

Key statistics

Satellite OPS 6582 (TRANSIT 5E-5) at a glance.

Uptime

22185

Days in orbit

Revolutions

≈ 13.6

Per day

Orbit

SSO

Sun Synchronous Orbit

Inclination

90.0

Latest

Satellite identification and parameters

Extended collection of information and parameters for OPS 6582 (TRANSIT 5E-5).

Object identification

Identified? True

Debris? False

Object name: OPS 6582 (TRANSIT 5E-5)

International designator: 1964-083C

Object number (NORAD): 959

Object ID (CCSDS): 959

Country: UNITED STATES OF AMERICA (US)

Current information (Y/N): Y

RCS size: LARGE

Orbital parameters

Period: 105.698 minutes

Inclination: 90.0071 deg

SMA: 7405.199 km

Apoapsis: 1059.754 km

Periapsis: 994.374 km

RAAN: 187.0566 deg

Eccentricy: 0.00441444

Argument of periapsis: 56.08 deg

Mean anomaly: 117.3506 deg

Mean motion: 13.62378207 rev/day

Mean motion (dot): 0.00000209 rev/day2

B* drag term: 0.00025573786 1/REarth

Two-line elements (TLE)

Creation date: Sept. 8, 2025, 6:18 p.m.

Reference frame: TEME

Reference center: EARTH

Epoch: Sept. 8, 2025, 1:28 p.m. UTC

TLE line 0: 0 OPS 6582 (TRANSIT 5E-5)

TLE line 1: 1 00959U 64083C 25251.56170758 .00000209 00000-0 25574-3 0 9995

TLE line 2: 2 00959 90.0071 187.0566 0044144 56.0800 117.3506 13.62378207 11869

Live tracking on map

Real-time ground track for satellite OPS 6582 (TRANSIT 5E-5).

In-orbit conjunctions

There are no conjunctions computed for OPS 6582 (TRANSIT 5E-5), at the moment. Check back to stay up to date, as we update our databases every day.

Go to all conjunctions

Associated space launch

The Transit-O series of satellites that closely followed the design of Transit 5C-1 were also called “Oscars” (Oscar is the phonetic alphabet for “O”, i. e., operational). They were also called NNS (Navy Navigation Satellite) or shortened NavSat.

OPS 6582 (TRANSIT 5E-5) was lifted into orbit during the mission ‘Thor DM-21 Ablestar | Transit-O 2 & 5E-5’, on board a Thor DM-21 Ablestar space rocket.

The launch took place on Dec. 13, 1964, 12:08 a.m. from Space Launch Complex 2W.

For more information about the launch, click the button.

Launch to space Thor DM-21 Ablestar | Transit-O 2 & 5E-5
Thor DM-21 Ablestar | Transit-O 2 & 5E-5

Agency: N/A

Status: Launch Successful

Launch date: Dec. 13, 1964, 12:08 a.m. UTC

Rocket: Thor DM-21 Ablestar

Launch pad: Space Launch Complex 2W

Location: Vandenberg SFB, CA, USA

...

Latest news about this satellite

There are no fresh news available about this satellite. Check back as we update our databases every day.


Newsletter sign-up

Weekly statistics, charts and insights to help you stay on top of the space industry.